Home > Weather > Ann Arbor > Past weeks

Flag for USA Past Weather in Ann Arbor, Michigan, USA — Yesterday and Last 2 Weeks

Now
83 °F

Sunny.


Feels Like: 90 °F
Forecast: 71 / 90 °F
Wind: 7 mph from South

Location: Ann Arbor Municipal Airport

Current Time: Jul 24, 2016 at 8:17:23 PM

Latest Report: Jul 24, 2016 at 7:53 PM


Visibility: 3 mi

Pressure: 29.89 "Hg

Humidity: 77%

Dew Point: 75 °F

Location of Ann ArborLocation

Past Weather in Ann Arbor — Graph

°F

Ann Arbor Temperature Yesterday

Maximum temperature yesterday: 95 °F (at 2:53 PM)
Minimum temperature yesterday: 65 °F (at 5:53 AM)
Average temperature yesterday: 81 °F

High & Low Weather Summary for the Past Weeks

 TemperatureHumidityPressure
High95 °F (Jul 23, 2:53 PM)100% (Jul 10, 2:53 AM)30.27 "Hg (Jul 10, 2:53 AM)
Low52 °F (Jul 17, 5:58 AM)32% (Jul 23, 1:53 PM)29.78 "Hg (Jul 14, 5:53 AM)
Average74 °F74%30.01 "Hg
* Reported Jul 9 6:53 PM — Jul 24 6:53 PM, Ann Arbor, Weather by CustomWeather, © 2016

Note: Actual official high and low records may vary slightly from our data, if they occured in-between our weather recording intervals... More about our weather records

Advertising

Ann Arbor Weather History for the Previous 24 Hours

Scroll right to see more
 ConditionsComfort  
Time TempWeatherWind HumidityBarometerVisibility
6:53 PM
Sun, Jul 24
84 °FSunny.7 mph74%29.90 "Hg10 mi
5:53 PM84 °FSunny.10 mph70%29.89 "Hg10 mi
4:53 PM85 °FSunny.13 mph68%29.89 "Hg10 mi
3:53 PM81 °FSunny.8 mph77%29.91 "Hg10 mi
2:53 PM77 °FSunny.8 mph85%29.93 "Hg10 mi
1:53 PM74 °FLight rain. Partly sunny.8 mph94%29.95 "Hg10 mi
12:53 PM73 °FLight rain. Broken clouds.7 mph94%29.96 "Hg10 mi
11:53 AM74 °FRain. Fog.6 mph97%29.96 "Hg4 mi
10:53 AM76 °FScattered clouds.N/A91%29.95 "Hg10 mi
9:53 AM75 °FLight rain. Broken clouds.5 mph90%29.96 "Hg7 mi
8:53 AM76 °FPassing clouds.3 mph85%29.94 "Hg10 mi
7:53 AM76 °FSunny.6 mph82%29.93 "Hg10 mi
6:53 AM75 °FPassing clouds.No wind85%29.90 "Hg10 mi
5:53 AM74 °FClear.No wind88%29.93 "Hg10 mi
4:53 AM72 °FPassing clouds.No wind87%29.97 "Hg10 mi
3:53 AM74 °FClear.No wind79%29.96 "Hg10 mi
2:53 AM74 °FClear.3 mph69%29.96 "Hg10 mi
1:53 AM76 °FClear.7 mph64%29.96 "Hg10 mi
12:53 AM77 °FClear.6 mph62%29.95 "Hg10 mi
11:53 PM
Sat, Jul 23
78 °FClear.5 mph60%29.96 "Hg10 mi
10:53 PM80 °FClear.5 mph56%29.97 "Hg10 mi
9:53 PM82 °FPassing clouds.5 mph53%29.95 "Hg10 mi
8:53 PM78 °FPassing clouds.No wind71%29.94 "Hg10 mi
Weather by CustomWeather, © 2016

See weather overviewHow to use our weather pages